EW7704 Weather Reports


Display with metric or nautical units.
time (UTC)temp
F
wind
direction
speed
MPH
gust
MPH
rain 1hr
in
rain 24hr
in
rain mn
in
humidity
%
barometer
mb
20260903195009 88 118 6.0 15.0 0.00 0.00 0.00 21 1003.9
20260903194507 89 37 4.0 12.0 0.00 0.00 0.00 19 1003.9
20260903194006 88 58 4.0 12.0 0.00 0.00 0.00 20 1004.0
20260903193506 88 69 3.0 11.0 0.00 0.00 0.00 21 1004.1
20260903193005 88 65 8.0 13.0 0.00 0.00 0.00 20 1004.1
20260903192505 88 130 9.0 13.0 0.00 0.00 0.00 20 1004.2
20260903192005 87 50 7.0 15.0 0.00 0.00 0.00 22 1004.3
20260903191504 87 30 5.0 15.0 0.00 0.00 0.00 21 1004.3
20260903191003 88 19 7.0 12.0 0.00 0.00 0.00 23 1004.4
20260903190503 87 40 3.0 10.0 0.00 0.00 0.00 21 1004.4
20260903190002 88 67 4.0 9.0 0.00 0.00 0.00 20 1004.5
20260903185600 88 100 3.0 9.0 0.00 0.00 0.00 21 1004.6
20260903185059 88 73 3.0 10.0 0.00 0.00 0.00 22 1004.6
20260903184600 87 88 4.0 9.0 0.00 0.00 0.00 23 1004.7
20260903184058 86 34 2.0 10.0 0.00 0.00 0.00 24 1004.7
20260903183601 88 79 3.0 10.0 0.00 0.00 0.00 23 1004.6
20260903183057 88 142 0.0 8.0 0.00 0.00 0.00 24 1004.8
20260903182600 87 340 1.0 7.0 0.00 0.00 0.00 23 1004.9
20260903182055 88 88 2.0 7.0 0.00 0.00 0.00 25 1005.0
20260903181604 87 117 2.0 8.0 0.00 0.00 0.00 25 1005.1
20260903181055 86 95 3.0 8.0 0.00 0.00 0.00 25 1005.1
20260903180555 86 88 2.0 4.0 0.00 0.00 0.00 24 1005.2
20260903175554 85 170 1.0 4.0 0.00 0.00 0.00 26 1005.2
20260903175054 85 106 2.0 8.0 0.00 0.00 0.00 25 1005.2
20260903174556 85 355 3.0 8.0 0.00 0.00 0.00 25 1005.3
20260903174053 85 16 2.0 6.0 0.00 0.00 0.00 26 1005.3
20260903173553 85 30 2.0 6.0 0.00 0.00 0.00 24 1005.4
20260903173101 84 69 2.0 7.0 0.00 0.00 0.00 25 1005.4
20260903172557 84 81 3.0 5.0 0.00 0.00 0.00 24 1005.3
20260903172052 86 13 1.0 4.0 0.00 0.00 0.00 26 1005.3
20260903171552 86 122 1.0 6.0 0.00 0.00 0.00 28 1005.3
20260903171051 86 350 1.0 6.0 0.00 0.00 0.00 28 1005.3
20260903170551 87 28 1.0 4.0 0.00 0.00 0.00 30 1005.4
20260903170141 86 5 1.0 4.0 0.00 0.00 0.00 31 1005.4
20260903165550 85 239 1.0 4.0 0.00 0.00 0.00 33 1005.4
20260903165050 86 23 1.0 6.0 0.00 0.00 0.00 33 1005.4
20260903164552 84 255 1.0 6.0 0.00 0.00 0.00 36 1005.4
20260903164050 84 267 1.0 5.0 0.00 0.00 0.00 37 1005.5
20260903163550 85 223 1.0 7.0 0.00 0.00 0.00 35 1005.4
20260903163045 83 234 3.0 7.0 0.00 0.00 0.00 34 1005.2
20260903162548 83 255 3.0 8.0 0.00 0.00 0.00 34 1005.3
20260903162045 84 182 2.0 8.0 0.00 0.00 0.00 30 1005.3
20260903161553 83 248 3.0 10.0 0.00 0.00 0.00 30 1005.3
20260903161042 81 67 2.0 6.0 0.00 0.00 0.00 33 1005.3
20260903160542 81 212 1.0 6.0 0.00 0.00 0.00 35 1005.4
20260903160045 81 360 0.0 6.0 0.00 0.00 0.00 33 1005.3
20260903155542 80 68 3.0 7.0 0.00 0.00 0.00 33 1005.3
20260903155040 80 59 2.0 6.0 0.00 0.00 0.00 32 1005.4
20260903154550 81 213 1.0 4.0 0.00 0.00 0.00 36 1005.2
20260903154039 80 323 1.0 9.0 0.00 0.00 0.00 37 1005.4
20260903153537 79 213 1.0 8.0 0.00 0.00 0.00 40 1005.2
20260903153036 76 57 2.0 8.0 0.00 0.00 0.00 47 1005.4
20260903152534 75 47 3.0 8.0 0.00 0.00 0.00 51 1005.4
20260903152033 73 25 3.0 5.0 0.00 0.00 0.00 54 1005.4
20260903151544 71 46 2.0 6.0 0.00 0.00 0.00 58 1005.6
20260903151133 71 19 4.0 9.0 0.00 0.00 0.00 56 1005.7
20260903150533 73 62 2.0 8.0 0.00 0.00 0.00 52 1005.7
20260903150039 72 61 4.0 8.0 0.00 0.00 0.00 53 1005.7
20260903145529 71 91 3.0 7.0 0.00 0.00 0.00 53 1005.8
20260903145028 69 135 3.0 5.0 0.00 0.00 0.00 61 1005.9
20260903144528 67 67 3.0 5.0 0.00 0.00 0.00 63 1005.8
20260903144028 67 14 2.0 9.0 0.00 0.00 0.00 66 1006.0
20260903143527 69 25 4.0 9.0 0.00 0.00 0.00 61 1006.0
20260903143026 69 97 3.0 8.0 0.00 0.00 0.00 60 1005.8
20260903142524 68 98 3.0 7.0 0.00 0.00 0.00 62 1005.8
20260903142025 67 90 3.0 8.0 0.00 0.00 0.00 65 1005.7
20260903141525 66 77 3.0 7.0 0.00 0.00 0.00 67 1005.7
20260903141020 65 109 3.0 6.0 0.00 0.00 0.00 66 1005.8
20260903140518 64 121 1.0 4.0 0.00 0.00 0.00 72 1005.8
20260903140026 62 161 0.0 3.0 0.00 0.00 0.00 75 1006.0
20260903135518 61 92 1.0 6.0 0.00 0.00 0.00 76 1006.1
20260903135020 61 157 1.0 6.0 0.00 0.00 0.00 77 1006.0
20260903134517 61 57 1.0 4.0 0.00 0.00 0.00 77 1006.0
20260903134017 62 124 0.0 3.0 0.00 0.00 0.00 76 1006.0
20260903133520 61 125 1.0 3.0 0.00 0.00 0.00 76 1006.0
20260903133017 61 79 0.0 2.0 0.00 0.00 0.00 75 1005.9
20260903132516 60 175 0.0 3.0 0.00 0.00 0.00 77 1006.0
20260903132015 59 121 2.0 3.0 0.00 0.00 0.00 79 1005.8
20260903131516 58 234 0.0 2.0 0.00 0.00 0.00 82 1005.9
20260903131015 58 236 0.0 2.0 0.00 0.00 0.00 83 1005.7
20260903130515 57 236 1.0 2.0 0.00 0.00 0.00 84 1005.8
20260903130014 57 202 0.0 4.0 0.00 0.00 0.00 86 1005.8
20260903125514 55 178 0.0 6.0 0.00 0.00 0.00 88 1005.7
20260903125013 55 99 2.0 6.0 0.00 0.00 0.00 87 1005.7
20260903124512 55 360 0.0 2.0 0.00 0.00 0.00 88 1005.5
20260903124011 54 360 0.0 4.0 0.00 0.00 0.00 88 1005.3
20260903123511 54 360 2.0 4.0 0.00 0.00 0.00 87 1005.2
20260903123014 55 360 0.0 2.0 0.00 0.00 0.00 86 1005.3
20260903122510 55 360 0.0 1.0 0.00 0.00 0.00 88 1005.3
20260903122013 55 360 0.0 2.0 0.00 0.00 0.00 87 1005.2
20260903121509 55 360 0.0 2.0 0.00 0.00 0.00 87 1005.1
20260903121012 55 360 0.0 4.0 0.00 0.00 0.00 86 1005.3
20260903120508 56 360 0.0 4.0 0.00 0.00 0.00 86 1005.2
20260903120007 55 360 1.0 3.0 0.00 0.00 0.00 87 1005.2
20260903115508 56 360 0.0 3.0 0.00 0.00 0.00 87 1005.0
20260903115006 56 360 0.0 3.0 0.00 0.00 0.00 86 1005.1
20260903114506 56 360 0.0 2.0 0.00 0.00 0.00 87 1005.0
20260903114005 56 360 0.0 2.0 0.00 0.00 0.00 86 1005.0
20260903113505 56 360 0.0 2.0 0.00 0.00 0.00 87 1004.9
20260903113017 56 360 0.0 2.0 0.00 0.00 0.00 86 1004.9
20260903112505 57 360 0.0 2.0 0.00 0.00 0.00 86 1004.9
20260903112005 57 360 0.0 2.0 0.00 0.00 0.00 86 1004.8
20260903111506 57 360 0.0 2.0 0.00 0.00 0.00 87 1004.6
20260903111005 56 360 0.0 3.0 0.00 0.00 0.00 87 1004.8
20260903110505 56 360 0.0 2.0 0.00 0.00 0.00 88 1004.9
20260903110005 56 360 0.0 2.0 0.00 0.00 0.00 87 1004.8
20260903105504 56 360 0.0 1.0 0.00 0.00 0.00 87 1004.8
20260903105005 56 360 0.0 1.0 0.00 0.00 0.00 86 1004.6
20260903104503 56 360 0.0 1.0 0.00 0.00 0.00 88 1004.7
20260903104004 56 360 0.0 1.0 0.00 0.00 0.00 87 1004.7
20260903103501 57 360 0.0 1.0 0.00 0.00 0.00 87 1004.8
20260903103001 56 360 0.0 1.0 0.00 0.00 0.00 88 1004.8
20260903102500 56 360 0.0 2.0 0.00 0.00 0.00 88 1004.8
20260903102100 56 360 0.0 2.0 0.00 0.00 0.00 88 1004.9
20260903101602 57 360 0.0 1.0 0.00 0.00 0.00 88 1005.0
20260903101059 57 360 0.0 1.0 0.00 0.00 0.00 86 1004.9
20260903100559 57 360 0.0 1.0 0.00 0.00 0.00 86 1004.7
20260903100059 57 360 0.0 1.0 0.00 0.00 0.00 85 1004.9
20260903095558 58 360 0.0 1.0 0.00 0.00 0.00 85 1005.0
20260903095058 58 360 0.0 2.0 0.00 0.00 0.00 85 1005.1
20260903094557 57 360 0.0 2.0 0.00 0.00 0.00 85 1005.1
20260903094057 57 360 0.0 1.0 0.00 0.00 0.00 84 1005.0
20260903093558 58 142 0.0 1.0 0.00 0.00 0.00 81 1005.0
20260903093100 59 147 0.0 1.0 0.00 0.00 0.00 82 1005.0
20260903092557 59 147 0.0 1.0 0.00 0.00 0.00 83 1004.9
20260903092055 59 147 0.0 1.0 0.00 0.00 0.00 84 1005.0
20260903091556 59 147 0.0 1.0 0.00 0.00 0.00 85 1004.9
20260903091054 59 147 0.0 0.0 0.00 0.00 0.00 84 1005.0
20260903090554 59 147 0.0 1.0 0.00 0.00 0.00 85 1005.0
20260903090054 59 147 0.0 1.0 0.00 0.00 0.00 85 1004.9
20260903085552 59 136 0.0 1.0 0.00 0.00 0.00 84 1005.0
20260903085052 59 142 0.0 1.0 0.00 0.00 0.00 84 1004.9
20260903084553 60 98 0.0 0.0 0.00 0.00 0.00 83 1004.9
20260903084050 60 360 0.0 1.0 0.00 0.00 0.00 82 1004.9
20260903083549 61 360 0.0 0.0 0.00 0.00 0.00 81 1004.9
20260903083048 61 148 0.0 0.0 0.00 0.00 0.00 80 1004.9
20260903082547 62 149 0.0 1.0 0.00 0.00 0.00 80 1004.9
20260903082048 61 149 0.0 1.0 0.00 0.00 0.00 81 1005.0
20260903081547 61 137 0.0 1.0 0.00 0.00 0.00 82 1005.0
20260903081148 61 136 0.0 1.0 0.00 0.00 0.00 82 1005.0
20260903080547 61 128 0.0 1.0 0.00 0.00 0.00 82 1004.9
20260903080044 61 112 0.0 0.0 0.00 0.00 0.00 81 1004.8
20260903075543 62 113 0.0 0.0 0.00 0.00 0.00 81 1004.7
20260903075042 62 113 0.0 0.0 0.00 0.00 0.00 81 1004.8
20260903074550 62 114 0.0 0.0 0.00 0.00 0.00 81 1004.8
20260903074040 62 114 0.0 0.0 0.00 0.00 0.00 79 1004.9
20260903073539 63 112 0.0 1.0 0.00 0.00 0.00 79 1005.0
20260903073138 63 113 0.0 1.0 0.00 0.00 0.00 78 1005.1
20260903072538 64 114 0.0 2.0 0.00 0.00 0.00 77 1005.1
20260903072038 63 114 0.0 2.0 0.00 0.00 0.00 77 1005.1
20260903071538 63 10 0.0 1.0 0.00 0.00 0.00 77 1005.1
20260903071036 63 10 0.0 2.0 0.00 0.00 0.00 76 1005.2
20260903070536 63 10 1.0 2.0 0.00 0.00 0.00 76 1005.4
20260903070036 64 236 0.0 1.0 0.00 0.00 0.00 74 1005.4
20260903065536 64 236 0.0 1.0 0.00 0.00 0.00 74 1005.3
20260903065035 64 236 0.0 0.0 0.00 0.00 0.00 73 1005.4
20260903064535 64 236 0.0 1.0 0.00 0.00 0.00 74 1005.5
20260903064035 64 236 0.0 2.0 0.00 0.00 0.00 75 1005.4
20260903063534 63 236 0.0 2.0 0.00 0.00 0.00 76 1005.4
20260903063035 63 85 0.0 2.0 0.00 0.00 0.00 76 1005.2
20260903062531 64 86 1.0 2.0 0.00 0.00 0.00 72 1005.3
20260903062031 65 134 0.0 3.0 0.00 0.00 0.00 69 1005.2
20260903061531 65 134 0.0 3.0 0.00 0.00 0.00 69 1005.4
20260903061029 65 115 1.0 3.0 0.00 0.00 0.00 69 1005.3
20260903060528 65 139 0.0 1.0 0.00 0.00 0.00 70 1005.2
20260903060027 65 139 0.0 2.0 0.00 0.00 0.00 70 1005.2
20260903055527 65 139 0.0 2.0 0.00 0.00 0.00 70 1005.1
20260903055027 65 139 0.0 2.0 0.00 0.00 0.00 70 1005.3
20260903054532 65 139 0.0 2.0 0.00 0.00 0.00 70 1005.2
20260903054026 65 139 0.0 2.0 0.00 0.00 0.00 70 1004.9
20260903053526 65 137 1.0 2.0 0.00 0.00 0.00 70 1005.0
20260903053026 65 248 0.0 1.0 0.00 0.00 0.00 70 1005.0
20260903052526 65 248 0.0 1.0 0.00 0.00 0.00 69 1004.9
20260903052026 65 250 0.0 1.0 0.00 0.00 0.00 70 1005.1
20260903051526 65 250 0.0 0.0 0.00 0.00 0.00 72 1005.2
20260903051029 65 250 0.0 0.0 0.00 0.00 0.00 71 1005.3
20260903050528 66 250 0.0 0.0 0.00 0.00 0.00 67 1005.2
20260903050027 67 251 0.0 1.0 0.00 0.00 0.00 66 1005.4
20260903045527 67 251 0.0 2.0 0.00 0.00 0.00 66 1005.6
20260903045025 67 252 0.0 3.0 0.00 0.00 0.00 66 1005.6
20260903044527 67 242 0.0 2.0 0.00 0.00 0.00 66 1005.6
20260903044025 67 248 0.0 6.0 0.00 0.00 0.00 65 1005.5
20260903043525 67 252 3.0 6.0 0.00 0.00 0.00 65 1005.5
20260903043027 67 222 2.0 5.0 0.00 0.00 0.00 66 1005.5
20260903042626 67 234 2.0 5.0 0.00 0.00 0.00 65 1005.5
20260903042024 67 74 1.0 7.0 0.00 0.00 0.00 66 1005.3
20260903041524 66 259 1.0 4.0 0.00 0.00 0.00 68 1005.1
20260903041024 67 120 0.0 7.0 0.00 0.00 0.00 65 1004.9
20260903040524 67 75 3.0 8.0 0.00 0.00 0.00 65 1005.0
20260903040023 67 151 3.0 10.0 0.00 0.00 0.00 65 1004.9
20260903035522 68 144 4.0 10.0 0.00 0.00 0.00 64 1004.8
20260903035022 68 131 6.0 10.0 0.00 0.00 0.00 63 1005.0
20260903034522 67 94 5.0 10.0 0.00 0.00 0.00 66 1004.8
20260903034020 67 138 5.0 10.0 0.00 0.00 0.00 67 1005.0
20260903033522 67 100 3.0 11.0 0.00 0.00 0.00 69 1005.1
20260903033031 69 115 7.0 11.0 0.00 0.00 0.00 64 1005.1
20260903032521 70 272 1.0 3.0 0.00 0.00 0.00 62 1004.4
20260903032021 70 360 0.0 4.0 0.00 0.00 0.00 62 1004.8
20260903031521 70 360 2.0 12.0 0.00 0.00 0.00 60 1005.3
20260903031018 70 360 3.0 12.0 0.00 0.00 0.00 59 1005.5
20260903030523 70 360 8.0 12.0 0.00 0.00 0.00 59 1005.7
20260903030018 70 360 1.0 5.0 0.00 0.00 0.00 55 1005.3
20260903025520 70 360 0.0 5.0 0.00 0.00 0.00 55 1004.9
20260903025016 70 360 0.0 5.0 0.00 0.00 0.00 56 1004.6
20260903024516 70 360 1.0 4.0 0.00 0.00 0.00 55 1004.6
20260903024015 70 360 1.0 4.0 0.00 0.00 0.00 54 1004.3
20260903023516 71 360 0.0 3.0 0.00 0.00 0.00 54 1004.3
20260903023018 71 360 0.0 3.0 0.00 0.00 0.00 56 1004.2
20260903022516 71 360 1.0 3.0 0.00 0.00 0.00 56 1004.4
20260903022015 71 360 0.0 5.0 0.00 0.00 0.00 56 1004.4
20260903021519 72 205 1.0 5.0 0.00 0.00 0.00 55 1004.2
20260903021019 72 347 1.0 3.0 0.00 0.00 0.00 52 1004.6
20260903020517 72 190 0.0 4.0 0.00 0.00 0.00 51 1004.6
20260903020014 72 360 1.0 4.0 0.00 0.00 0.00 51 1004.4
20260903015514 73 360 1.0 5.0 0.00 0.00 0.00 51 1004.2
20260903015015 73 360 1.0 5.0 0.00 0.00 0.00 51 1004.1
20260903014513 73 360 2.0 7.0 0.00 0.00 0.00 50 1004.1
20260903014014 73 154 3.0 8.0 0.00 0.00 0.00 49 1004.0
20260903013514 74 65 1.0 6.0 0.00 0.00 0.00 50 1004.0
20260903013013 74 344 1.0 6.0 0.00 0.00 0.00 48 1004.0
20260903012515 75 27 1.0 3.0 0.00 0.00 0.00 46 1004.0
20260903012016 75 34 1.0 5.0 0.00 0.00 0.00 45 1004.0
20260903011513 75 49 0.0 5.0 0.00 0.00 0.00 43 1004.0
20260903011012 75 327 0.0 5.0 0.00 0.00 0.00 43 1003.8
20260903010513 76 20 1.0 3.0 0.00 0.00 0.00 42 1003.7
20260903010013 76 98 0.0 4.0 0.00 0.00 0.00 42 1003.8
20260903005515 76 114 0.0 2.0 0.00 0.00 0.00 42 1003.9
20260903005012 77 132 0.0 2.0 0.00 0.00 0.00 42 1003.9
20260903004516 77 360 0.0 5.0 0.00 0.00 0.00 40 1003.9
20260903004012 77 360 0.0 5.0 0.00 0.00 0.00 40 1003.8
20260903003512 78 13 1.0 4.0 0.00 0.00 0.00 40 1003.7
20260903003013 79 11 1.0 4.0 0.00 0.00 0.00 39 1003.8
20260903002511 79 24 2.0 4.0 0.00 0.00 0.00 38 1003.9
20260903002011 80 360 1.0 4.0 0.00 0.00 0.00 37 1003.9
20260903001515 81 34 1.0 6.0 0.00 0.00 0.00 36 1003.8
20260903001011 83 15 2.0 8.0 0.00 0.00 0.00 34 1003.7
20260903000510 83 245 2.0 8.0 0.00 0.00 0.00 34 1003.8
20260903000010 84 242 1.0 7.0 0.00 0.00 0.00 31 1003.9
20260902235510 85 346 1.0 7.0 0.00 0.00 0.00 33 1004.0
20260902235010 85 355 1.0 4.0 0.00 0.00 0.00 31 1003.9
20260902234514 85 230 1.0 3.0 0.00 0.00 0.00 31 1003.8
20260902234009 84 288 0.0 4.0 0.00 0.00 0.00 30 1003.8
20260902233509 83 198 1.0 6.0 0.00 0.00 0.00 32 1003.9
20260902233009 82 216 1.0 6.0 0.00 0.00 0.00 34 1003.9
20260902232510 82 234 1.0 11.0 0.00 0.00 0.00 34 1003.9
20260902232010 82 216 5.0 17.0 0.00 0.00 0.00 33 1003.7
20260902231515 84 360 5.0 17.0 0.00 0.00 0.00 31 1004.1
20260902231011 85 236 4.0 16.0 0.00 0.00 0.00 27 1003.8
20260902230508 86 131 4.0 9.0 0.00 0.00 0.00 26 1003.6
20260902230008 86 86 3.0 6.0 0.00 0.00 0.00 26 1003.3
20260902225508 86 10 4.0 8.0 0.00 0.00 0.00 26 1003.2
20260902225008 86 11 4.0 9.0 0.00 0.00 0.00 25 1003.0
20260902224507 87 55 4.0 11.0 0.00 0.00 0.00 25 1002.9
20260902224007 88 99 7.0 13.0 0.00 0.00 0.00 24 1003.0
20260902223507 89 56 7.0 12.0 0.00 0.00 0.00 24 1002.8
20260902223006 89 77 5.0 11.0 0.00 0.00 0.00 23 1002.9
20260902222509 89 51 3.0 12.0 0.00 0.00 0.00 23 1002.8
20260902222006 89 80 8.0 12.0 0.00 0.00 0.00 24 1002.8
20260902221506 89 57 6.0 13.0 0.00 0.00 0.00 23 1002.9
20260902221006 89 24 7.0 13.0 0.00 0.00 0.00 23 1003.1
20260902220506 89 50 7.0 14.0 0.00 0.00 0.00 23 1003.2
20260902220004 90 65 7.0 14.0 0.00 0.00 0.00 23 1003.3
20260902215504 90 49 3.0 12.0 0.00 0.00 0.00 23 1003.4
20260902215003 89 82 6.0 14.0 0.00 0.00 0.00 24 1003.4
20260902214600 89 53 8.0 14.0 0.00 0.00 0.00 22 1003.5
20260902214102 89 46 7.0 15.0 0.00 0.00 0.00 23 1003.5
20260902213600 89 73 7.0 17.0 0.00 0.00 0.00 23 1003.6
20260902213108 89 88 8.0 15.0 0.00 0.00 0.00 23 1003.6
20260902212559 89 63 5.0 13.0 0.00 0.00 0.00 23 1003.6
20260902212058 89 35 8.0 13.0 0.00 0.00 0.00 23 1003.7
20260902211603 89 80 5.0 14.0 0.00 0.00 0.00 22 1003.9
20260902211056 89 44 7.0 13.0 0.00 0.00 0.00 23 1004.0
20260902210557 89 46 9.0 13.0 0.00 0.00 0.00 23 1004.1
20260902205554 88 74 3.0 15.0 0.00 0.00 0.00 23 1004.3
20260902205059 88 64 8.0 15.0 0.00 0.00 0.00 23 1004.3
20260902204553 88 71 6.0 14.0 0.00 0.00 0.00 23 1004.5
20260902204051 89 59 9.0 14.0 0.00 0.00 0.00 23 1004.5
20260902203550 88 49 5.0 10.0 0.00 0.00 0.00 23 1004.7
20260902203051 88 52 3.0 11.0 0.00 0.00 0.00 22 1004.9
20260902202549 88 87 6.0 11.0 0.00 0.00 0.00 23 1004.9
20260902202048 88 340 2.0 11.0 0.00 0.00 0.00 24 1004.9
20260902201549 88 5 4.0 12.0 0.00 0.00 0.00 23 1005.0
20260902201050 89 42 6.0 12.0 0.00 0.00 0.00 23 1005.0
20260902200546 87 40 4.0 12.0 0.00 0.00 0.00 23 1005.2
20260902200049 87 13 4.0 7.0 0.00 0.00 0.00 23 1005.2
20260902195547 88 40 4.0 8.0 0.00 0.00 0.00 22 1005.3